Regional Weather Roundup
Issued by NWS Midland/Odessa, TX

Skip options and go directly to product.
Home | Oldest Version | Next Version | Current Version | All | Text Only | Save Text | Print | Product List | Glossary On

Skip product version selection by date and time.   
424
ASUS44 KMAF 230101
RWRMAF
MIDLAND AREA WEATHER ROUNDUP
NATIONAL WEATHER SERVICE MIDLAND TX
800 PM CDT FRI JUL 22 2016

...IN SOUTHWEST TEXAS AND SOUTHEAST NEW MEXICO...

CITY           SKY/WX    TMP DP  RH WIND       PRES   REMARKS
ALPINE         SUNNY     91  49  23 SE10      30.17S
ANDREWS        FAIR      94  53  24 S10G20    30.05S
ARTESIA        SUNNY     99  46  16 SE15      30.02S
BIG SPRING     CLEAR     98  58  26 SE9       30.04S
CARLSBAD       PTSUNNY   98  44  15 SE9G20    29.99F
DRYDEN           N/A     96  56  26 SE16G23   29.97F
FORT STOCKTON  CLEAR     93  52  24 SE14      30.02F
GUAD PASS      SUNNY     88  39  17 E14       30.19F
HOBBS          SUNNY     93  43  17 SE12G18   30.07S
MARFA          SUNNY     90  46  21 SE13      30.15F
MIDLAND AIRPK  CLEAR     96  52  22 SE10      30.03S
MIDLAND INTL   CLEAR     96  53  23 SE14      30.03S
ODESSA         CLEAR     96  53  23 SE13      30.04S
PECOS          SUNNY     99  51  20 E16G24    29.96S
PRESIDIO       FAIR     100  44  14 NE10      29.95F
SEMINOLE       SUNNY     95  48  20 S10       30.06S
SNYDER           N/A     96  57  27 SE9       30.02S
WINK           SUNNY     97  53  22 SE17      29.99S
$$
...OTHER STATIONS IN TEXAS...

CITY           SKY/WX    TMP DP  RH WIND       PRES   REMARKS
ABILENE        CLEAR     95  59  30 SE9       30.00S
AMARILLO       SUNNY     94  51  23 S20       30.06S
AUSTIN         PTCLDY    95  66  38 SE8       29.95F
BROWNSVILLE    CLEAR     86  74  67 E8        29.96F
CORPUS CHRISTI PTCLDY    88  75  65 SE15      29.96S
DALLAS FTW     PTCLDY    95  64  35 S8        29.95S
DEL RIO        CLEAR     98  60  28 SE14      29.91F
EL PASO        MOSUNNY  100  44  14 S7        29.99F
HOUSTON INT    PTCLDY    91  69  48 SE12      29.97R
LUBBOCK        CLEAR     94  51  23 S12       30.06S
SAN ANGELO     MOCLDY    98  55  23 SE9G16    29.98F
SAN ANTONIO    PTCLDY    94  63  35 SE10      29.97S
WACO           CLEAR     95  66  38 S12       29.95S
WICHITA FALLS  NOT AVBL
$$
...OTHER LOCATIONS IN NEW MEXICO...

CITY           SKY/WX    TMP DP  RH WIND       PRES   REMARKS
ALAMAGORDO     SUNNY     97  45  16 S10G17    30.04F
ALBUQUERQUE    CLOUDY    97  35  11 SW12      30.11F
CANNON AFB     SUNNY     94  46  19 S12       30.09S
CLOVIS         SUNNY     93  46  20 SE12      30.10S
HOLLOMAN AFB   NOT AVBL
ROSWELL        SUNNY    100  43  14 SE14      30.02S
RUIDOSO          N/A     84  43  23 SE14      30.31S
SANTA FE       SUNNY     94  32  11 SW5       30.19F
TRUTH OR CONSE MOSUNNY   98  40  13 SE5       30.06F
TUCUMCARI      SUNNY     99  43  14 S17G25    30.02S
$$

USA.gov is the U.S. government's official web portal to all federal, state and local government web resources and services.